Change the Weather History Date:

Tuesday, April 22, 2014

  Actual Average (KSTP) Record (KSTP)
Temperature  
Mean Temperature 44 °F -  
Max Temperature 55 °F 59 °F 79 °F (2007)
Min Temperature 33 °F 38 °F 32 °F (2002)
Degree Days  
Heating Degree Days 21    
Moisture  
Dew Point 30 °F    
Average Humidity 59    
Maximum Humidity 87    
Minimum Humidity 35    
Precipitation  
Precipitation 0.00 in - - ()
Sea Level Pressure  
Sea Level Pressure 30.10 in    
Wind  
Wind Speed 6 mph (NNW)    
Max Wind Speed 17 mph    
Max Gust Speed 24 mph    
Visibility 10 miles    
Events      
Averages and records for this station are not official NWS values.
T = Trace of Precipitation, MM = Missing Value Source: NWS Daily Summary

Daily Weather History Graph

Daily Weather History Graph

Search for Another Location

Airport or City:

Trip Planner

Search our weather history database for the weather conditions in past years. The results will help you decide how hot, cold, wet, or windy it might be!

Date:

Astronomy

Apr. 22, 2014 Rise Set
Actual Time 6:14 AM CDT 8:05 PM CDT
Civil Twilight 5:43 AM CDT 8:37 PM CDT
Nautical Twilight 5:05 AM CDT 9:15 PM CDT
Astronomical Twilight 4:23 AM CDT 9:57 PM CDT
Moon 2:22 AM CDT (4/22) 12:49 PM CDT (4/22)
Length of Visible Light 14h 53m
Length of Day
13h 51m
Last Quarter, 46% of the Moon is Illuminated
Apr 22
Last Quarter
Apr 29
New
May 6
First Quarter
May 14
Full
May 21
Last Quarter

Hourly Weather History & Observations

Time (CDT) Temp. Windchill Dew Point Humidity Pressure Visibility Wind Dir Wind Speed Gust Speed Precip Events Conditions
12:10 AM 41.0 °F - 32.0 °F 70% 30.09 in 10.0 mi Calm Calm - N/A   Clear
12:31 AM 39.2 °F 37.0 °F 32.0 °F 75% 30.08 in 10.0 mi WNW 3.5 mph - N/A   Clear
12:51 AM 39.2 °F 37.0 °F 32.0 °F 75% 30.08 in 10.0 mi West 3.5 mph - N/A   Clear
1:11 AM 39.2 °F 35.9 °F 32.0 °F 75% 30.09 in 10.0 mi West 4.6 mph - N/A   Clear
1:31 AM 39.2 °F 35.9 °F 32.0 °F 75% 30.09 in 10.0 mi NW 4.6 mph - N/A   Clear
1:51 AM 39.2 °F 37.0 °F 32.0 °F 75% 30.08 in 10.0 mi NW 3.5 mph - N/A   Clear
2:11 AM 37.4 °F 32.8 °F 30.2 °F 75% 30.09 in 10.0 mi WNW 5.8 mph - N/A   Clear
2:31 AM 37.4 °F 33.8 °F 30.2 °F 75% 30.09 in 10.0 mi NW 4.6 mph - N/A   Clear
2:51 AM 39.2 °F 35.0 °F 30.2 °F 70% 30.09 in 10.0 mi NNW 5.8 mph - N/A   Clear
3:11 AM 39.2 °F 35.0 °F 30.2 °F 70% 30.09 in 10.0 mi NNW 5.8 mph - N/A   Clear
3:31 AM 37.4 °F 33.8 °F 30.2 °F 75% 30.10 in 10.0 mi NNW 4.6 mph - N/A   Clear
3:51 AM 37.4 °F 33.8 °F 30.2 °F 75% 30.10 in 10.0 mi North 4.6 mph - N/A   Clear
4:11 AM 37.4 °F 33.8 °F 30.2 °F 75% 30.10 in 10.0 mi NNW 4.6 mph - N/A   Clear
4:31 AM 35.6 °F 31.7 °F 30.2 °F 81% 30.10 in 10.0 mi NNW 4.6 mph - N/A   Clear
4:50 AM 35.6 °F 31.7 °F 30.2 °F 81% 30.11 in 10.0 mi NNW 4.6 mph - N/A   Clear
5:11 AM 35.6 °F 31.7 °F 30.2 °F 81% 30.11 in 10.0 mi NNW 4.6 mph - N/A   Clear
5:31 AM 35.6 °F 31.7 °F 30.2 °F 81% 30.11 in 10.0 mi NW 4.6 mph - N/A   Clear
5:50 AM 33.8 °F 30.8 °F 30.2 °F 87% 30.11 in 10.0 mi NW 3.5 mph - N/A   Clear
6:11 AM 33.8 °F 29.6 °F 30.2 °F 87% 30.12 in 10.0 mi WNW 4.6 mph - N/A   Clear
6:31 AM 33.8 °F 29.6 °F 28.4 °F 81% 30.12 in 10.0 mi NW 4.6 mph - N/A   Clear
6:51 AM 35.6 °F 31.7 °F 30.2 °F 81% 30.12 in 10.0 mi NW 4.6 mph - N/A   Clear
7:11 AM 35.6 °F 30.7 °F 30.2 °F 81% 30.11 in 10.0 mi NNW 5.8 mph - N/A   Clear
7:30 AM 37.4 °F 32.1 °F 30.2 °F 75% 30.12 in 10.0 mi NNW 6.9 mph - N/A   Clear
7:51 AM 37.4 °F 30.8 °F 30.2 °F 75% 30.13 in 10.0 mi NNW 9.2 mph - N/A   Clear
8:11 AM 39.2 °F 33.6 °F 30.2 °F 70% 30.13 in 10.0 mi NNW 8.1 mph - N/A   Clear
8:30 AM 41.0 °F 35.2 °F 30.2 °F 65% 30.13 in 10.0 mi NNW 9.2 mph - N/A   Clear
8:51 AM 42.8 °F 35.8 °F 30.2 °F 61% 30.13 in 10.0 mi NNW 13.8 mph - N/A   Clear
9:11 AM 42.8 °F 37.0 °F 28.4 °F 57% 30.13 in 10.0 mi North 10.4 mph 19.6 mph N/A   Clear
9:30 AM 42.8 °F 36.2 °F 28.4 °F 57% 30.14 in 10.0 mi North 12.7 mph 19.6 mph N/A   Clear
9:51 AM 44.6 °F 38.4 °F 28.4 °F 53% 30.13 in 10.0 mi NNW 12.7 mph 20.7 mph N/A   Clear
10:11 AM 46.4 °F 40.7 °F 30.2 °F 53% 30.13 in 10.0 mi NNW 12.7 mph 19.6 mph N/A   Clear
10:31 AM 46.4 °F 41.1 °F 30.2 °F 53% 30.12 in 10.0 mi NNW 11.5 mph - N/A   Clear
10:51 AM 48.2 °F - 30.2 °F 50% 30.13 in 10.0 mi NNW 15.0 mph 19.6 mph N/A   Clear
11:11 AM 50.0 °F - 30.2 °F 47% 30.13 in 10.0 mi NNW 16.1 mph 23.0 mph N/A   Clear
11:31 AM 50.0 °F - 30.2 °F 47% 30.13 in 10.0 mi North 12.7 mph 21.9 mph N/A   Clear
11:51 AM 50.0 °F - 30.2 °F 47% 30.13 in 10.0 mi NNW 10.4 mph 18.4 mph N/A   Clear
12:11 PM 50.0 °F - 30.2 °F 47% 30.13 in 10.0 mi NNW 12.7 mph 17.3 mph N/A   Clear
12:31 PM 51.8 °F - 32.0 °F 47% 30.12 in 10.0 mi NW 13.8 mph 19.6 mph N/A   Clear
12:51 PM 53.6 °F - 32.0 °F 44% 30.12 in 10.0 mi NNW 15.0 mph 23.0 mph N/A   Clear
1:11 PM 51.8 °F - 32.0 °F 47% 30.11 in 10.0 mi NW 13.8 mph 19.6 mph N/A   Clear
1:31 PM 53.6 °F - 32.0 °F 44% 30.11 in 10.0 mi NNW 12.7 mph 19.6 mph N/A   Clear
1:51 PM 53.6 °F - 32.0 °F 44% 30.10 in 10.0 mi North 12.7 mph 24.2 mph N/A   Clear
2:10 PM 53.6 °F - 32.0 °F 44% 30.10 in 10.0 mi NW 17.3 mph 21.9 mph N/A   Clear
2:31 PM 55.4 °F - 32.0 °F 41% 30.09 in 10.0 mi NNW 15.0 mph 21.9 mph N/A   Clear
2:51 PM 55.4 °F - 32.0 °F 41% 30.09 in 10.0 mi North 10.4 mph 21.9 mph N/A   Clear
3:10 PM 55.4 °F - 32.0 °F 41% 30.08 in 10.0 mi NNW 15.0 mph 20.7 mph N/A   Clear
3:31 PM 55.4 °F - 30.2 °F 38% 30.07 in 10.0 mi North 9.2 mph 17.3 mph N/A   Clear
3:51 PM 55.4 °F - 30.2 °F 38% 30.07 in 10.0 mi North 8.1 mph - N/A   Clear
4:10 PM 55.4 °F - 30.2 °F 38% 30.07 in 10.0 mi North 12.7 mph 16.1 mph N/A   Clear
4:31 PM 55.4 °F - 30.2 °F 38% 30.06 in 10.0 mi North 5.8 mph - N/A   Clear
4:51 PM 55.4 °F - 28.4 °F 36% 30.06 in 10.0 mi NNE 9.2 mph - N/A   Clear
5:11 PM 55.4 °F - 28.4 °F 36% 30.06 in 10.0 mi NNE 4.6 mph - N/A   Clear
5:31 PM 55.4 °F - 28.4 °F 36% 30.06 in 10.0 mi North 8.1 mph - N/A   Clear
5:50 PM 55.4 °F - 28.4 °F 36% 30.06 in 10.0 mi North 10.4 mph 16.1 mph N/A   Clear
6:11 PM 55.4 °F - 28.4 °F 36% 30.06 in 10.0 mi NNW 10.4 mph - N/A   Clear
6:31 PM 53.6 °F - 26.6 °F 35% 30.06 in 10.0 mi NNE 6.9 mph - N/A   Clear
6:51 PM 53.6 °F - 26.6 °F 35% 30.05 in 10.0 mi North 6.9 mph - N/A   Clear
7:11 PM 53.6 °F - 26.6 °F 35% 30.05 in 10.0 mi NE 5.8 mph - N/A   Clear
7:31 PM 53.6 °F - 26.6 °F 35% 30.05 in 10.0 mi ENE 3.5 mph - N/A   Clear
7:51 PM 50.0 °F - 26.6 °F 40% 30.06 in 10.0 mi ENE 6.9 mph - N/A   Clear
8:11 PM 48.2 °F - 28.4 °F 46% 30.07 in 10.0 mi ENE 3.5 mph - N/A   Clear
8:30 PM 46.4 °F - 30.2 °F 53% 30.07 in 10.0 mi Calm Calm - N/A   Clear
8:51 PM 46.4 °F - 26.6 °F 46% 30.08 in 10.0 mi Calm Calm - N/A   Clear
9:11 PM 44.6 °F - 28.4 °F 53% 30.09 in 10.0 mi Calm Calm - N/A   Clear
9:30 PM 42.8 °F - 28.4 °F 57% 30.09 in 10.0 mi Calm Calm - N/A   Clear
9:51 PM 41.0 °F - 30.2 °F 65% 30.09 in 10.0 mi Calm Calm - N/A   Clear
10:11 PM 39.2 °F - 30.2 °F 70% 30.09 in 10.0 mi Calm Calm - N/A   Clear
10:51 PM 39.2 °F - 30.2 °F 70% 30.10 in 10.0 mi Calm Calm - N/A   Clear
11:11 PM 37.4 °F - 32.0 °F 81% 30.09 in 10.0 mi Calm Calm - N/A   Clear
11:31 PM 37.4 °F - 32.0 °F 81% 30.09 in 5.0 mi Calm Calm - N/A   Haze
11:51 PM 35.6 °F - 32.0 °F 87% 30.10 in 10.0 mi Calm Calm - N/A   Clear